Temp_Advection
nan nan nan nan nan nan nan nan nan nan nan nan nan nan nan nan nan nan nan nan nan nan nan nan nan nan nan nan nan nan nan nan nan nan nan nan nan nan nan nan nan nan nan
nan 0 0 0 0 0 -0 0 0 0 0 0 0 -0 -0 0 0 -0 -0 -0 0 -0 -0 -0 -0 -0 -0 0 0 -0 -1 -0 -0 -1 -1 -1 -1 -0 0 0 0 0 nan
nan 0 0 0 0 -0 -0 -0 -0 -0 -0 -0 -0 -0 -0 -0 -0 -0 0 -0 -0 0 -0 -0 -0 0 -0 0 0 0 -0 -1 -0 0 -0 -0 -0 -1 -0 0 0 0 nan
nan 0 0 0 0 -0 -0 -0 -0 -0 -0 -0 -0 -0 -0 -0 -0 -0 -0 0 -0 -0 -0 -0 0 0 0 0 0 0 0 -0 -0 -0 0 0 0 -0 -1 -0 -0 -0 nan
nan 0 0 0 0 -0 -0 -0 -0 -0 -0 -0 -0 -0 -0 -0 -0 -0 -0 -0 0 -0 -0 -0 -0 0 0 0 0 0 0 0 -0 -0 -0 -0 -0 -0 -0 -1 -1 -1 nan
nan 0 0 0 0 0 -0 0 0 0 -0 -0 -0 -0 -0 -0 -0 -0 -0 -0 -0 0 -0 -0 -0 -0 0 0 0 0 0 0 -0 0 -0 -0 -0 -0 -0 -0 -0 -1 nan
nan 0 0 0 0 0 -0 -0 -0 -0 -0 -0 -0 -0 -0 -0 -0 -0 -0 -0 -0 -0 0 -0 -0 -0 -0 0 0 0 0 0 -0 -0 -0 -0 -0 -0 -0 -0 -0 -0 nan
nan 0 0 0 0 -0 -0 -0 -0 -0 -0 -0 -0 -0 -0 -0 -0 -0 -0 -0 -0 -0 -0 -0 -0 -0 -0 -0 -0 0 0 0 0 0 -0 -0 -0 -0 -0 -0 -0 -0 nan
nan 0 0 0 -0 -0 -0 -0 -0 -0 -0 -0 -0 -0 -0 -0 -0 -0 -0 -0 -0 -0 -0 -0 -0 -0 -0 -0 -0 -0 0 0 0 0 0 -0 0 0 -0 -0 0 0 nan
nan 0 0 0 -0 -0 -0 -0 -0 -0 -0 -0 -0 -0 -0 -0 -0 -0 -0 -0 -0 -0 -0 -0 -0 -0 0 -0 -0 -0 -0 -0 -0 -0 -0 0 0 0 0 0 0 0 nan
nan 0 0 0 0 -0 -0 -0 -0 -0 -0 -0 -0 -0 -0 -0 -0 -0 -0 -0 -0 -0 -0 -0 0 0 0 0 0 -0 -0 0 0 0 -0 -0 -0 -0 0 0 0 0 nan
nan 0 0 0 -0 -0 -0 -0 -0 -0 -0 -0 -0 -0 -0 -0 -0 -0 -0 -0 -0 -0 -0 -0 -0 -0 -0 0 0 0 0 -0 0 0 -0 -0 -0 -0 -0 -0 -0 0 nan
nan 0 0 0 -0 -0 -0 -0 -0 -0 -0 -0 -0 -0 -0 -0 -0 -0 -0 -0 -0 -0 -0 -0 -0 -0 -0 -0 -0 0 0 0 0 0 0 0 -0 -0 -0 -0 -0 0 nan
nan 0 0 0 -0 -0 -0 -0 -0 -0 -0 -0 -0 -0 -0 -0 -0 -0 -0 -0 -0 -0 -0 -0 -0 -0 -0 -0 0 0 0 0 0 0 0 0 -0 -0 -0 -0 -0 0 nan
nan 0 0 0 0 -0 -0 -0 -0 -0 -0 0 0 -0 -0 -0 -0 -0 -0 -0 -0 -0 -0 -0 0 -0 -0 -0 -0 -0 0 0 0 0 0 0 0 -0 -0 -0 0 0 nan
nan 0 0 0 0 -0 -0 -0 -0 -0 -0 -0 0 -0 -0 -0 -0 -0 -0 -0 -0 -0 -0 -0 -0 0 -0 -0 -0 -0 -0 -0 -0 0 0 1 0 0 0 -0 -0 -0 nan
nan 0 0 0 0 -0 -0 -0 -0 -0 -0 -0 -0 -0 -0 -0 -0 -0 -0 -0 -0 -0 -0 -0 -0 -0 -0 -0 -0 -0 -0 -0 -0 -0 -0 0 1 1 0 0 0 -0 nan
nan 0 0 0 0 -0 -0 -0 0 -0 -0 -0 -0 -0 -0 -0 -0 -0 -0 -1 -0 -0 -0 -0 -0 -0 -0 -1 -1 -0 -0 -0 0 0 -0 -0 0 0 0 0 0 0 nan
nan 0 0 0 0 -0 -0 0 0 0 -0 -0 -0 -0 -0 -0 -0 -0 -0 -0 -1 -0 -0 -0 -0 -1 -0 -0 -1 -1 -1 -1 -0 0 0 -0 -0 0 0 -0 0 0 nan
nan 0 0 0 0 0 0 0 0 0 0 -0 -0 -0 -0 -0 -0 -0 -0 -0 -0 -1 -1 -0 -0 -0 -0 -0 -0 -1 -1 -1 -1 -1 0 1 -0 0 1 0 -0 -1 nan
nan 1 0 -0 -0 0 0 0 0 0 -0 -0 -0 -0 -0 0 -0 -0 -0 -0 -0 -0 -0 -1 -0 0 -0 -0 0 -0 -0 -1 -1 -2 -1 0 1 -0 -0 1 0 -0 nan
nan 0 -0 -0 -0 0 0 0 -0 -0 -0 -0 -0 -0 -0 -0 0 -0 -0 0 -0 -0 -1 -1 -1 -1 0 -0 -0 -0 -0 -0 -1 -1 -1 -1 0 1 -0 -1 -0 1 nan
nan -0 -0 -0 -0 -0 -0 -0 -0 0 -0 -0 -0 -0 -0 -0 -0 -0 -0 -0 -0 -0 -0 -0 -1 -1 -1 -0 0 0 -0 -0 -0 -0 -0 -1 -1 1 1 -0 -1 0 nan
nan -0 -0 -0 -0 -0 0 -0 -0 0 -0 -0 -1 -1 -1 -1 -0 -0 -0 -0 -1 -0 -0 -0 -0 -0 -1 -0 0 0 -0 -0 -0 -1 -1 -0 -1 -1 0 1 -0 -0 nan
nan -0 -0 -0 -0 -0 -0 -0 0 0 -0 -0 -0 -0 -0 -0 -0 -0 0 -0 -0 0 -1 -0 -0 -1 -1 -0 0 -0 -0 -0 1 -0 -2 -1 0 -0 -1 -2 -1 -0 nan
nan nan nan nan nan nan nan nan nan nan nan nan nan nan nan nan nan nan nan nan nan nan nan nan nan nan nan nan nan nan nan nan nan nan nan nan nan nan nan nan nan nan nan
Wind_Speed
6 10 10 6 3 2 1 6 10 12 13 13 10 8 8 8 10 12 12 13 14 15 15 15 15 16 15 15 16 17 15 13 18 22 18 11 9 20 19 22 19 18 9
12 11 8 5 4 1 4 9 10 11 11 11 10 9 9 9 10 11 13 15 15 16 16 16 16 16 14 14 14 16 17 14 16 18 16 17 16 21 17 21 14 16 11
11 9 7 6 3 2 7 7 8 9 9 9 10 11 12 13 14 14 15 16 18 17 17 17 17 16 16 16 15 15 16 16 12 10 9 7 6 24 17 21 17 13 10
9 8 7 4 1 2 4 5 6 8 9 11 12 13 15 17 17 18 18 18 18 18 18 18 18 17 16 16 15 15 14 14 14 10 7 8 11 7 11 17 16 16 11
9 7 5 5 5 5 4 5 7 10 12 13 14 15 16 18 20 21 22 22 20 20 19 19 19 18 17 16 16 15 14 14 12 12 13 9 7 5 9 11 18 13 10
8 9 10 9 7 4 4 6 9 11 13 14 15 17 18 20 21 21 21 21 20 19 19 20 20 19 18 17 17 16 15 14 14 12 12 11 12 11 11 14 16 14 12
11 11 10 8 4 3 6 9 11 14 16 16 17 17 18 20 21 22 23 22 21 19 17 19 20 20 18 18 18 19 17 16 16 15 13 12 12 13 12 13 14 12 14
12 11 8 5 2 4 8 12 15 18 19 20 19 19 19 19 19 20 21 22 22 21 19 19 20 20 20 19 19 19 19 18 18 17 16 15 14 14 14 14 14 15 10
12 10 7 4 0 5 10 14 17 19 20 20 20 18 18 18 19 19 20 21 21 20 19 19 19 19 19 20 20 20 20 20 19 18 18 18 17 17 16 16 15 13 8
12 10 8 4 3 6 10 15 17 19 21 21 21 20 19 18 19 19 20 19 20 19 19 19 19 19 19 19 20 21 21 21 20 20 20 20 19 19 19 18 17 16 17
13 13 11 7 5 8 12 14 17 19 20 20 19 18 17 17 17 17 18 18 18 19 19 19 19 19 19 19 20 21 21 22 21 20 20 20 19 20 19 19 19 18 19
13 14 13 8 6 9 11 14 17 18 18 18 17 16 15 15 16 17 18 18 19 18 19 19 19 19 19 18 19 20 20 21 21 20 21 21 20 21 20 19 19 19 20
16 16 14 9 7 8 11 14 17 17 18 18 16 14 14 15 16 17 17 18 18 18 17 18 18 19 19 18 18 19 19 20 20 20 21 21 21 22 20 20 20 20 20
19 17 15 10 6 7 10 13 15 17 17 16 15 15 15 16 17 17 17 17 18 18 18 19 20 20 20 21 20 19 18 19 20 20 21 22 22 23 22 22 21 21 21
24 20 15 10 5 7 11 14 17 18 18 17 16 15 16 17 17 17 17 17 18 18 18 19 18 18 19 19 19 19 19 19 19 19 20 22 23 23 24 24 22 22 23
25 18 12 7 5 10 14 17 18 18 18 18 17 16 17 17 17 16 16 17 17 17 18 19 20 20 20 20 19 20 21 20 20 21 20 20 22 23 23 24 24 24 24
20 15 11 8 9 13 16 18 19 20 20 18 17 17 17 17 17 17 18 19 20 21 20 20 20 20 20 20 20 20 20 21 20 20 21 22 21 22 23 23 24 26 26
14 13 10 10 11 14 17 19 19 19 18 17 17 17 18 18 19 21 22 21 21 21 20 20 20 21 20 20 21 21 22 22 22 22 22 21 21 21 22 23 25 26 26
11 11 11 12 14 17 20 20 19 18 17 17 19 19 20 21 22 22 22 21 21 21 22 22 23 23 23 23 24 25 26 26 26 25 23 23 23 20 20 24 26 27 28
13 16 17 17 17 19 20 20 18 19 20 20 22 23 23 23 23 22 22 22 23 24 24 24 24 25 25 24 24 24 26 28 29 29 29 25 24 25 22 22 25 29 29
19 18 17 18 18 18 18 19 18 21 21 24 23 23 22 23 24 25 26 27 27 28 28 28 28 28 27 27 26 24 25 26 28 29 30 30 28 25 25 25 26 28 26
17 16 17 18 16 14 17 19 21 21 21 21 22 24 25 26 28 30 30 31 31 32 32 32 33 32 30 28 28 27 26 26 27 28 29 29 29 29 25 24 26 26 25
15 16 17 17 14 13 15 18 20 21 23 25 27 28 29 29 30 32 33 34 33 33 33 32 33 34 31 30 28 27 27 27 28 30 31 28 28 30 29 27 25 25 25
18 15 14 15 17 17 19 20 22 24 26 28 28 28 30 31 32 33 34 33 34 35 34 34 35 34 34 33 30 27 26 27 28 30 31 31 31 30 29 29 28 25 27
16 16 18 19 20 22 23 24 25 26 28 29 31 31 30 31 33 34 35 35 36 35 35 36 35 35 35 32 29 29 28 28 29 28 31 33 32 31 31 33 29 27 25
19 19 22 25 28 30 32 33 33 32 32 33 35 36 37 38 39 40 41 40 40 39 38 37 36 37 36 33 30 29 30 30 29 26 30 35 36 34 30 31 35 29 28
Wind_Direction
163 166 167 169 174 192 310 329 331 334 337 338 339 341 343 339 332 330 329 332 332 331 336 336 335 333 333 333 333 335 343 354 346 350 4 30 357 0 8 1 360 342 325
134 139 146 154 162 191 319 325 329 333 339 348 350 349 348 345 337 332 330 327 327 325 328 328 327 327 330 328 326 327 336 354 5 4 3 351 4 2 13 7 16 13 355
132 136 145 149 157 297 317 325 330 335 340 345 343 339 336 334 333 331 329 327 322 320 319 317 318 321 324 325 324 325 327 335 355 14 10 339 326 343 3 12 15 29 21
143 144 146 150 227 347 19 18 9 359 353 347 342 339 336 331 330 327 324 322 319 317 314 312 312 313 311 313 315 317 320 322 328 340 360 346 337 310 327 1 14 27 22
145 147 155 144 120 95 62 25 2 352 346 341 337 332 328 324 322 320 316 314 312 313 313 310 308 306 305 304 304 307 309 309 315 321 324 332 333 354 325 319 340 348 16
154 147 139 130 116 86 31 1 351 349 347 344 338 331 326 323 322 321 321 322 319 312 309 308 307 306 303 300 297 297 297 299 301 302 306 312 324 324 329 325 328 322 325
157 148 143 138 116 44 11 6 360 353 348 343 337 332 329 328 327 327 327 328 326 323 314 310 308 305 303 300 297 294 293 291 291 290 289 288 293 299 303 307 307 312 315
160 158 153 145 92 36 15 3 356 350 345 342 339 337 332 329 328 325 324 326 325 324 319 312 309 307 301 298 296 295 292 288 286 284 285 284 284 284 288 294 302 308 295
174 172 170 170 46 354 350 350 349 346 344 343 342 339 334 331 330 329 328 328 327 325 323 317 312 308 304 299 296 296 296 289 285 282 281 281 279 278 277 277 278 278 286
188 192 195 219 291 328 342 345 343 343 342 341 337 335 335 334 333 333 331 330 329 326 324 320 317 313 309 304 298 296 294 291 288 284 282 280 280 279 277 274 270 264 261
204 206 211 231 282 322 333 336 340 341 341 338 338 337 338 341 343 343 343 342 340 336 334 330 327 321 314 306 301 299 297 292 289 285 284 282 281 280 278 276 272 267 261
212 211 217 237 277 314 329 339 342 342 340 340 340 340 342 345 347 347 348 345 344 344 342 340 336 332 328 323 314 305 299 296 291 288 282 284 285 283 283 281 277 271 266
212 212 218 237 271 309 332 341 341 342 340 337 337 336 336 337 339 342 345 346 348 350 350 347 347 346 342 337 331 320 311 301 294 289 285 284 284 285 284 282 278 276 271
214 215 220 232 259 311 334 339 337 335 333 329 328 328 328 328 330 331 331 332 336 339 343 347 351 351 350 347 344 338 327 315 306 298 290 286 285 285 283 280 279 277 274
216 217 219 226 267 326 334 334 332 328 325 324 322 320 319 321 323 322 323 325 329 332 334 337 340 341 342 344 347 346 340 331 320 309 298 290 286 284 281 278 277 275 273
223 219 220 235 304 330 333 330 324 321 320 315 315 316 317 320 321 324 328 332 333 334 334 335 336 338 337 336 338 338 338 337 331 323 312 301 291 287 283 278 277 274 271
222 221 229 259 302 323 324 322 323 320 313 313 315 315 315 318 321 325 327 327 327 327 327 328 329 331 334 333 332 331 330 330 331 329 322 315 307 295 286 278 274 273 273
221 222 242 275 297 316 320 314 306 302 300 302 306 308 309 312 316 319 321 319 318 319 321 323 326 327 332 330 329 327 326 325 325 323 322 319 315 309 297 285 275 270 269
249 246 271 282 297 312 307 301 301 300 298 300 301 304 307 310 311 313 314 314 314 314 317 320 323 324 326 327 328 326 324 323 321 318 316 313 311 309 299 289 282 275 270
264 267 278 281 289 301 294 289 293 294 298 300 301 304 308 308 309 310 311 312 312 313 314 315 316 318 320 323 323 323 321 321 320 318 317 315 308 304 300 289 285 280 277
271 272 283 292 301 300 289 289 291 296 303 299 298 302 306 306 306 307 308 310 311 310 311 311 312 313 315 317 317 317 314 313 312 312 312 311 310 305 299 293 286 282 284
276 277 289 300 304 301 296 296 297 306 305 303 301 304 305 305 304 304 305 305 305 305 306 307 308 310 312 311 311 311 310 309 306 306 304 303 302 302 302 294 289 284 279
307 309 309 304 305 306 302 299 303 302 300 300 300 300 299 297 297 296 297 297 299 300 302 303 303 305 307 305 304 306 306 307 309 310 309 303 298 297 296 298 294 285 269
309 309 311 312 309 305 300 301 303 304 305 304 302 301 300 302 301 299 298 298 300 302 302 301 300 302 301 302 302 299 300 302 304 305 306 306 304 300 293 295 293 286 274
315 314 315 315 313 313 311 310 309 309 309 309 308 306 304 302 300 299 299 300 300 301 301 301 302 301 300 301 299 299 301 303 303 303 302 302 304 305 299 296 291 285 284
308 315 320 317 312 310 309 307 310 317 318 315 313 312 310 309 307 305 304 301 300 301 302 301 300 300 299 300 296 295 297 297 298 294 290 293 296 297 298 294 291 287 284
Height
1529 1531 1533 1535 1536 1537 1537 1537 1536 1534 1532 1530 1528 1527 1525 1524 1523 1521 1519 1517 1515 1513 1511 1509 1507 1504 1502 1500 1497 1495 1493 1491 1486 1480 1476 1474 1472 1470 1465 1459 1453 1450 1447
1529 1531 1533 1534 1536 1536 1537 1535 1534 1532 1531 1529 1527 1525 1524 1523 1521 1520 1518 1515 1513 1512 1509 1507 1505 1503 1501 1499 1496 1493 1491 1489 1486 1482 1478 1473 1471 1469 1465 1461 1456 1452 1450
1530 1532 1533 1534 1535 1535 1535 1534 1533 1532 1530 1528 1527 1525 1523 1522 1520 1519 1517 1514 1511 1509 1507 1505 1502 1500 1498 1496 1494 1492 1490 1487 1486 1484 1483 1479 1476 1470 1466 1462 1458 1454 1453
1530 1531 1533 1534 1534 1534 1534 1533 1532 1531 1529 1527 1526 1524 1522 1520 1519 1517 1514 1512 1509 1507 1504 1501 1499 1497 1496 1494 1493 1491 1488 1486 1485 1484 1482 1481 1478 1473 1468 1465 1461 1458 1456
1530 1532 1532 1533 1533 1534 1534 1533 1533 1531 1529 1527 1524 1522 1520 1518 1516 1514 1511 1508 1506 1503 1500 1497 1495 1494 1492 1491 1489 1488 1486 1484 1483 1482 1480 1479 1477 1474 1471 1466 1463 1461 1459
1530 1531 1531 1533 1533 1533 1534 1533 1532 1530 1528 1525 1523 1520 1517 1515 1512 1510 1507 1504 1501 1499 1497 1494 1492 1490 1489 1487 1486 1484 1483 1482 1480 1479 1478 1477 1475 1473 1471 1468 1464 1462 1459
1529 1530 1532 1532 1533 1533 1533 1532 1531 1529 1526 1524 1521 1518 1515 1512 1509 1506 1503 1500 1497 1495 1493 1490 1488 1487 1485 1483 1481 1480 1479 1478 1477 1476 1475 1474 1473 1471 1470 1468 1465 1462 1459
1529 1530 1531 1532 1532 1533 1532 1531 1529 1527 1524 1521 1518 1515 1512 1509 1506 1503 1500 1497 1493 1490 1488 1486 1484 1483 1481 1479 1478 1476 1475 1474 1473 1472 1471 1470 1469 1468 1466 1465 1463 1460 1459
1528 1529 1530 1531 1531 1532 1531 1529 1527 1524 1521 1518 1515 1512 1509 1506 1503 1500 1497 1493 1490 1487 1484 1482 1480 1478 1476 1475 1473 1471 1470 1469 1468 1467 1465 1465 1464 1463 1462 1461 1460 1460 1458
1527 1528 1530 1530 1530 1530 1529 1526 1524 1521 1518 1515 1512 1509 1506 1503 1500 1497 1494 1491 1487 1484 1481 1478 1476 1474 1472 1470 1468 1466 1465 1463 1463 1461 1460 1460 1459 1458 1457 1456 1455 1455 1455
1525 1526 1527 1528 1529 1528 1526 1524 1521 1518 1516 1513 1509 1506 1503 1500 1497 1495 1491 1488 1485 1481 1478 1474 1472 1469 1467 1465 1463 1461 1459 1458 1457 1457 1455 1455 1454 1453 1451 1450 1450 1449 1449
1522 1524 1525 1526 1526 1525 1523 1521 1518 1515 1513 1510 1507 1504 1501 1498 1495 1493 1489 1486 1483 1480 1476 1473 1469 1466 1463 1461 1458 1456 1454 1452 1451 1451 1450 1449 1449 1448 1447 1445 1444 1443 1443
1518 1520 1522 1522 1522 1521 1520 1518 1515 1513 1510 1507 1504 1502 1499 1496 1494 1491 1488 1485 1482 1479 1475 1471 1467 1464 1460 1457 1454 1451 1449 1447 1446 1445 1444 1444 1443 1442 1441 1440 1439 1438 1437
1513 1515 1517 1517 1517 1517 1516 1514 1512 1509 1507 1504 1501 1498 1496 1494 1491 1489 1486 1483 1480 1477 1473 1469 1465 1461 1457 1454 1451 1448 1445 1443 1441 1440 1438 1437 1436 1435 1435 1434 1433 1432 1431
1506 1509 1511 1513 1513 1513 1512 1510 1508 1505 1503 1500 1497 1495 1493 1491 1488 1486 1483 1480 1477 1474 1470 1467 1463 1460 1456 1452 1449 1445 1442 1439 1437 1435 1433 1432 1430 1429 1428 1427 1426 1425 1425
1504 1507 1509 1510 1510 1510 1509 1507 1504 1502 1499 1496 1494 1492 1490 1487 1485 1482 1480 1477 1474 1470 1467 1463 1459 1456 1452 1448 1445 1442 1439 1436 1433 1430 1428 1426 1424 1422 1421 1420 1419 1419 1417
1504 1506 1507 1508 1507 1506 1505 1502 1499 1497 1495 1492 1490 1488 1486 1484 1481 1479 1476 1473 1470 1466 1463 1459 1456 1452 1448 1445 1441 1438 1435 1432 1429 1426 1422 1420 1418 1416 1414 1414 1413 1412 1411
1501 1503 1504 1504 1503 1502 1500 1498 1497 1495 1492 1490 1488 1485 1483 1480 1477 1475 1471 1468 1465 1462 1458 1455 1451 1448 1444 1441 1437 1434 1430 1427 1424 1421 1418 1415 1412 1410 1408 1406 1405 1405 1405
1503 1503 1502 1500 1499 1497 1496 1494 1492 1490 1488 1486 1484 1481 1478 1475 1472 1469 1466 1462 1459 1456 1453 1450 1447 1443 1440 1436 1432 1429 1425 1422 1419 1416 1413 1410 1406 1404 1401 1398 1396 1396 1396
1500 1499 1497 1495 1494 1493 1491 1489 1488 1485 1483 1481 1479 1476 1473 1469 1466 1463 1460 1457 1453 1450 1447 1444 1441 1437 1434 1431 1427 1423 1419 1416 1413 1410 1407 1405 1401 1398 1395 1392 1390 1388 1388
1496 1494 1493 1492 1490 1487 1485 1483 1482 1480 1479 1476 1473 1470 1467 1463 1460 1457 1454 1450 1447 1443 1440 1437 1434 1430 1427 1423 1420 1417 1413 1409 1405 1402 1399 1396 1393 1392 1389 1386 1383 1380 1381
1492 1488 1487 1486 1484 1481 1480 1479 1475 1475 1473 1470 1467 1464 1461 1458 1454 1450 1448 1444 1441 1437 1433 1429 1425 1422 1419 1416 1412 1409 1406 1402 1397 1394 1391 1388 1385 1382 1381 1378 1376 1374 1372
1488 1485 1482 1481 1480 1477 1474 1471 1470 1468 1466 1463 1460 1458 1454 1450 1448 1444 1440 1437 1433 1428 1424 1420 1416 1412 1410 1407 1404 1400 1397 1394 1390 1386 1382 1380 1377 1374 1371 1370 1368 1367 1365
1481 1481 1479 1476 1475 1473 1470 1467 1462 1459 1457 1455 1453 1449 1446 1443 1440 1436 1432 1428 1425 1420 1416 1411 1406 1401 1398 1397 1394 1391 1387 1385 1382 1377 1373 1369 1367 1365 1363 1360 1359 1359 1357
1479 1477 1475 1471 1469 1467 1464 1461 1456 1453 1449 1445 1443 1440 1436 1433 1428 1425 1422 1417 1414 1410 1405 1401 1397 1393 1388 1387 1385 1381 1377 1375 1373 1369 1364 1361 1357 1354 1352 1351 1350 1349 1348
1474 1472 1469 1466 1462 1459 1455 1452 1449 1445 1440 1436 1431 1428 1424 1420 1416 1412 1408 1407 1401 1399 1395 1391 1388 1383 1379 1377 1375 1372 1369 1367 1364 1361 1357 1352 1349 1346 1344 1341 1340 1339 1338